126P/IRAS (2023)

Japanese version
Home page
Updated on May 13, 2024

---------------------------------------------------------------------

* Profile

* Pictures

* Orbital Elements

Epoch 2024 Mar. 31.0 TT = JDT 2460400.5
T 2023 July 5.27954 TT                                  Rudenko
q   1.7103357            (2000.0)            P               Q
n   0.07370746     Peri.  356.57967     +0.99597318     +0.08555666
a   5.6337178      Node   357.86133     -0.05523008     +0.35019611
e   0.6964108      Incl.   45.87066     -0.07061916     +0.93276082
P  13.4
>From 1624 observations 2009 May 27-2024 Feb. 8, mean residual 0".6.
     Nongravitational parameters A1 = +0.01, A2 = +0.1882.

* Finding Charts

* Magnitudes Graph

        m1 = 9.2 + 5 log d + 15.0 log r

---------------------------------------------------------------------

The orbital elements are published on M.P.E.C. 2024-D126.
The charts are made with StellaNavigator Ver.10 (AstroArts).
The magnitudes graphs are made with Comet for Windows.

---------------------------------------------------------------------

Copyright(C) Seiichi Yoshida (comet@aerith.net). All rights reserved.